Previsão horária em Barrancas

Hoje, 27 Outubro, Terça-feira

Tempo Temperatura Precipitação Vento Pressão Humidade
00:00 +23°C° 0 mm 2 m/s 719 mmHg 90%
01:00 +23°C° 0 mm 2 m/s 719 mmHg 91%
02:00 +23°C° 0 mm 2 m/s 719 mmHg 91%
03:00 +21°C° 0 mm 2 m/s 719 mmHg 90%
04:00 +22°C° 0 mm 1 m/s 719 mmHg 90%
05:00 +23°C° 0 mm 1 m/s 719 mmHg 87%
06:00 +24°C° 0 mm 1 m/s 720 mmHg 85%
07:00 +25°C° 0 mm 1 m/s 720 mmHg 82%
08:00 +27°C° 0 mm 1 m/s 720 mmHg 75%
09:00 +29°C° 0 mm 1 m/s 721 mmHg 67%
10:00 +31°C° 0 mm 1 m/s 721 mmHg 60%
11:00 +31°C° 0 mm 1 m/s 720 mmHg 58%
12:00 +31°C° 0 mm 1 m/s 719 mmHg 57%
13:00 +32°C° 0 mm 1 m/s 718 mmHg 56%
14:00 +31°C° 0 mm 2 m/s 718 mmHg 61%
15:00 +30°C° 0 mm 3 m/s 718 mmHg 65%
16:00 +30°C° 0 mm 3 m/s 717 mmHg 70%
17:00 +28°C° 0 mm 3 m/s 717 mmHg 75%
18:00 +27°C° 0 mm 2 m/s 718 mmHg 81%
19:00 +25°C° 0 mm 2 m/s 718 mmHg 86%
20:00 +25°C° 0 mm 2 m/s 719 mmHg 87%
21:00 +25°C° 0 mm 2 m/s 719 mmHg 88%
22:00 +24°C° 0 mm 2 m/s 719 mmHg 89%
23:00 +24°C° 0 mm 1 m/s 719 mmHg 90%

Amanhã, 28 Outubro, Quarta-feira

Tempo Temperatura Precipitação Vento Pressão Humidade
00:00 +24°C° 0 mm 1 m/s 718 mmHg 90%
01:00 +23°C° 0 mm 1 m/s 718 mmHg 90%
02:00 +23°C° 0 mm 1 m/s 718 mmHg 90%
03:00 +23°C° 0 mm 1 m/s 718 mmHg 90%
04:00 +23°C° 0 mm 1 m/s 718 mmHg 90%
05:00 +24°C° 0 mm 1 m/s 718 mmHg 87%
06:00 +25°C° 0 mm 1 m/s 719 mmHg 85%
07:00 +25°C° 0 mm 1 m/s 719 mmHg 83%
08:00 +27°C° 0 mm 1 m/s 719 mmHg 76%
09:00 +29°C° 0 mm 1 m/s 720 mmHg 69%
10:00 +31°C° 0 mm 1 m/s 720 mmHg 62%
11:00 +31°C° 0.4 mm 1 m/s 719 mmHg 63%
12:00 +31°C° 0.4 mm 1 m/s 718 mmHg 64%
13:00 +31°C° 0.4 mm 1 m/s 717 mmHg 65%
14:00 +30°C° 1.2 mm 1 m/s 717 mmHg 71%
15:00 +29°C° 1.2 mm 2 m/s 717 mmHg 76%
16:00 +28°C° 1.2 mm 2 m/s 716 mmHg 81%
17:00 +27°C° 0.2 mm 2 m/s 717 mmHg 83%
18:00 +26°C° 0.2 mm 2 m/s 717 mmHg 86%
19:00 +25°C° 0.2 mm 1 m/s 718 mmHg 88%
20:00 +25°C° 0 mm 1 m/s 718 mmHg 89%
21:00 +24°C° 0 mm 2 m/s 718 mmHg 90%
22:00 +24°C° 0 mm 2 m/s 719 mmHg 91%
23:00 +24°C° 0 mm 2 m/s 718 mmHg 91%

Depois de amanhã, 29 Outubro, Quinta-feira

Tempo Temperatura Precipitação Vento Pressão Humidade
00:00 +24°C° 0 mm 1 m/s 718 mmHg 91%
01:00 +23°C° 0 mm 1 m/s 718 mmHg 91%
02:00 +23°C° 0.1 mm 1 m/s 718 mmHg 91%
03:00 +23°C° 0.1 mm 1 m/s 718 mmHg 91%
04:00 +23°C° 0.1 mm 1 m/s 717 mmHg 91%
05:00 +24°C° 0.2 mm 1 m/s 718 mmHg 90%
06:00 +24°C° 0.2 mm 1 m/s 719 mmHg 88%
07:00 +25°C° 0.2 mm 1 m/s 719 mmHg 87%
08:00 +27°C° 0.2 mm 1 m/s 720 mmHg 81%
09:00 +28°C° 0.2 mm 1 m/s 720 mmHg 75%
10:00 +30°C° 0.2 mm 1 m/s 720 mmHg 68%
11:00 +30°C° 0.6 mm 1 m/s 720 mmHg 68%
12:00 +30°C° 0.6 mm 1 m/s 719 mmHg 68%
13:00 +30°C° 0.6 mm 1 m/s 718 mmHg 68%
14:00 +30°C° 1 mm 1 m/s 718 mmHg 72%
15:00 +29°C° 1 mm 1 m/s 717 mmHg 77%
16:00 +28°C° 1 mm 1 m/s 717 mmHg 81%
17:00 +27°C° 0.7 mm 1 m/s 718 mmHg 85%
18:00 +26°C° 0.7 mm 1 m/s 718 mmHg 88%
19:00 +25°C° 0.7 mm 1 m/s 718 mmHg 92%
20:00 +24°C° 0.4 mm 1 m/s 719 mmHg 92%
21:00 +24°C° 0.4 mm 1 m/s 719 mmHg 92%
22:00 +24°C° 0.4 mm 1 m/s 719 mmHg 93%
23:00 +24°C° 0.1 mm 1 m/s 719 mmHg 93%

30 Outubro, Sexta-feira

Tempo Temperatura Precipitação Vento Pressão Humidade
00:00 +24°C° 0.1 mm 1 m/s 719 mmHg 93%
01:00 +24°C° 0.1 mm 1 m/s 718 mmHg 93%
02:00 +23°C° 0 mm 1 m/s 718 mmHg 92%
03:00 +23°C° 0 mm 1 m/s 719 mmHg 92%
04:00 +23°C° 0 mm 1 m/s 719 mmHg 91%
05:00 +24°C° 0 mm 1 m/s 719 mmHg 89%
06:00 +25°C° 0 mm 1 m/s 720 mmHg 87%
07:00 +25°C° 0 mm 1 m/s 720 mmHg 86%
08:00 +27°C° 0.1 mm 1 m/s 720 mmHg 79%
09:00 +29°C° 0.1 mm 1 m/s 721 mmHg 72%
10:00 +31°C° 0.1 mm 1 m/s 721 mmHg 65%
11:00 +31°C° 0.8 mm 1 m/s 720 mmHg 67%
12:00 +31°C° 0.8 mm 1 m/s 719 mmHg 69%
13:00 +30°C° 0.8 mm 1 m/s 719 mmHg 71%
14:00 +30°C° 1.1 mm 1 m/s 718 mmHg 74%
15:00 +29°C° 1.1 mm 1 m/s 718 mmHg 78%
16:00 +29°C° 1.1 mm 1 m/s 718 mmHg 81%
17:00 +27°C° 0.3 mm 1 m/s 718 mmHg 85%
18:00 +26°C° 0.3 mm 1 m/s 719 mmHg 89%
19:00 +25°C° 0.3 mm 1 m/s 720 mmHg 93%
20:00 +24°C° 0.7 mm 1 m/s 720 mmHg 94%
21:00 +24°C° 0.7 mm 1 m/s 720 mmHg 94%
22:00 +24°C° 0.7 mm 1 m/s 720 mmHg 95%
23:00 +24°C° 0.2 mm 1 m/s 720 mmHg 94%

31 Outubro, Sábado

Tempo Temperatura Precipitação Vento Pressão Humidade
00:00 +24°C° 0.2 mm 1 m/s 720 mmHg 94%
01:00 +23°C° 0.2 mm 1 m/s 719 mmHg 94%
02:00 +23°C° 0.1 mm 1 m/s 719 mmHg 94%
03:00 +23°C° 0.1 mm 1 m/s 719 mmHg 93%
04:00 +23°C° 0.1 mm 1 m/s 719 mmHg 93%
05:00 +24°C° 0 mm 1 m/s 720 mmHg 91%
06:00 +25°C° 0 mm 1 m/s 720 mmHg 89%
07:00 +25°C° 0 mm 1 m/s 721 mmHg 87%
08:00 +27°C° 0.3 mm 1 m/s 721 mmHg 82%
09:00 +28°C° 0.3 mm 1 m/s 721 mmHg 76%
10:00 +30°C° 0.3 mm 1 m/s 721 mmHg 70%
11:00 +30°C° 1.3 mm 1 m/s 721 mmHg 70%
12:00 +30°C° 1.3 mm 1 m/s 720 mmHg 70%
13:00 +30°C° 1.3 mm 1 m/s 719 mmHg 70%
14:00 +30°C° 1 mm 2 m/s 719 mmHg 75%
15:00 +29°C° 1 mm 2 m/s 719 mmHg 79%
16:00 +28°C° 1 mm 2 m/s 718 mmHg 84%
17:00 +27°C° 0.1 mm 2 m/s 719 mmHg 86%
18:00 +26°C° 0.1 mm 2 m/s 719 mmHg 89%
19:00 +24°C° 0.1 mm 1 m/s 719 mmHg 92%
20:00 +24°C° 0 mm 1 m/s 720 mmHg 93%
21:00 +24°C° 0 mm 1 m/s 720 mmHg 93%
22:00 +24°C° 0 mm 2 m/s 720 mmHg 93%
23:00 +24°C° 0 mm 1 m/s 720 mmHg 93%

1 Novembro, Domingo

Tempo Temperatura Precipitação Vento Pressão Humidade
00:00 +24°C° 0 mm 1 m/s 719 mmHg 92%
01:00 +24°C° 0 mm 1 m/s 719 mmHg 92%
02:00 +23°C° 0.1 mm 1 m/s 719 mmHg 92%
03:00 +23°C° 0.1 mm 1 m/s 719 mmHg 92%
04:00 +23°C° 0.1 mm 1 m/s 719 mmHg 92%
05:00 +24°C° 0 mm 1 m/s 719 mmHg 90%
06:00 +24°C° 0 mm 1 m/s 720 mmHg 88%
07:00 +25°C° 0 mm 1 m/s 720 mmHg 87%
08:00 +27°C° 0.1 mm 1 m/s 720 mmHg 79%
09:00 +29°C° 0.1 mm 1 m/s 721 mmHg 71%
10:00 +30°C° 0.1 mm 1 m/s 721 mmHg 64%
11:00 +30°C° 0.5 mm 1 m/s 720 mmHg 66%
12:00 +30°C° 0.5 mm 1 m/s 719 mmHg 68%
13:00 +30°C° 0.5 mm 1 m/s 718 mmHg 70%
14:00 +29°C° 1.9 mm 1 m/s 718 mmHg 75%
15:00 +29°C° 1.9 mm 1 m/s 718 mmHg 80%
16:00 +28°C° 1.9 mm 1 m/s 717 mmHg 84%
17:00 +27°C° 0.5 mm 1 m/s 718 mmHg 87%
18:00 +26°C° 0.5 mm 1 m/s 718 mmHg 89%
19:00 +25°C° 0.5 mm 1 m/s 718 mmHg 91%
20:00 +25°C° 0.4 mm 1 m/s 718 mmHg 91%
21:00 +24°C° 0.4 mm 1 m/s 719 mmHg 92%
22:00 +24°C° 0.4 mm 1 m/s 719 mmHg 92%
23:00 +24°C° 1.4 mm 1 m/s 719 mmHg 93%
Mostrar mais